TimeCST,TemperatureF,Dew PointF,Humidity,Sea Level PressureIn,VisibilityMPH,Wind Direction,Wind SpeedMPH,Gust SpeedMPH,PrecipitationIn,Events,Conditions,WindDirDegrees,DateUTC
12:53 AM,26.1,23.0,88,30.36,10.0,Calm,Calm,-,N/A,,Clear,0,2013-11-07 06:53:00
1:53 AM,25.0,21.9,88,30.37,10.0,NNW,5.8,-,N/A,,Clear,330,2013-11-07 07:53:00
2:53 AM,32.0,27.0,82,30.37,10.0,West,6.9,-,N/A,,Clear,280,2013-11-07 08:53:00
3:53 AM,27.0,24.1,89,30.38,10.0,West,6.9,-,N/A,,Clear,270,2013-11-07 09:53:00
4:53 AM,28.9,25.0,85,30.41,10.0,NW,8.1,-,N/A,,Clear,310,2013-11-07 10:53:00
5:53 AM,24.1,21.9,91,30.44,10.0,NW,5.8,-,N/A,,Clear,320,2013-11-07 11:53:00
6:53 AM,23.0,21.0,92,30.46,10.0,NW,6.9,-,N/A,,Clear,310,2013-11-07 12:53:00
7:53 AM,26.1,23.0,88,30.48,10.0,North,3.5,-,N/A,,Clear,350,2013-11-07 13:53:00
8:53 AM,32.0,28.0,85,30.49,10.0,North,3.5,-,N/A,,Clear,350,2013-11-07 14:53:00
9:53 AM,37.0,30.9,79,30.49,10.0,NNW,6.9,-,N/A,,Clear,340,2013-11-07 15:53:00
10:53 AM,39.9,30.0,68,30.47,10.0,NW,6.9,-,N/A,,Clear,320,2013-11-07 16:53:00
11:53 AM,45.0,28.0,52,30.45,10.0,North,4.6,-,N/A,,Clear,350,2013-11-07 17:53:00
12:53 PM,46.0,28.9,51,30.42,10.0,NW,5.8,-,N/A,,Clear,310,2013-11-07 18:53:00
1:53 PM,46.0,30.0,54,30.40,10.0,West,6.9,-,N/A,,Mostly Cloudy,260,2013-11-07 19:53:00
2:53 PM,46.9,30.9,54,30.37,10.0,SW,5.8,-,N/A,,Clear,230,2013-11-07 20:53:00
3:53 PM,48.0,28.9,48,30.35,10.0,Calm,Calm,-,N/A,,Clear,0,2013-11-07 21:53:00
4:53 PM,46.0,30.9,56,30.34,10.0,South,3.5,-,N/A,,Clear,190,2013-11-07 22:53:00
5:53 PM,37.0,28.9,73,30.35,10.0,Calm,Calm,-,N/A,,Clear,0,2013-11-07 23:53:00
6:53 PM,35.1,28.0,76,30.34,10.0,Calm,Calm,-,N/A,,Clear,0,2013-11-08 00:53:00
7:53 PM,35.1,28.9,78,30.32,10.0,Calm,Calm,-,N/A,,Clear,0,2013-11-08 01:53:00
8:53 PM,35.1,27.0,72,30.28,10.0,SSE,3.5,-,N/A,,Clear,150,2013-11-08 02:53:00
9:53 PM,36.0,28.9,76,30.25,10.0,Variable,3.5,-,N/A,,Clear,0,2013-11-08 03:53:00
10:53 PM,37.9,30.0,73,30.22,10.0,SE,4.6,-,N/A,,Clear,130,2013-11-08 04:53:00
11:53 PM,39.0,30.9,73,30.18,10.0,SE,6.9,-,N/A,,Clear,140,2013-11-08 05:53:00